Weather History for Spokane Fairchild, WA

Change the Weather History Date:

Saturday, September 28, 2013

  Actual Average Record
Temperature  
Mean Temperature 50 °F -  
Max Temperature 56 °F 66 °F 82 °F (2003)
Min Temperature 46 °F 42 °F 32 °F (1999)
Degree Days  
Heating Degree Days 14    
Moisture  
Dew Point 50 °F    
Average Humidity 93    
Maximum Humidity 100    
Minimum Humidity 82    
Precipitation  
Precipitation 0.67 in - - ()
Sea Level Pressure  
Sea Level Pressure 29.68 in    
Wind  
Wind Speed 14 mph (SSE)    
Max Wind Speed 23 mph    
Max Gust Speed 34 mph    
Visibility 9 miles    
Events Rain    
Averages and records for this station are not official NWS values.
T = Trace of Precipitation, MM = Missing Value Source: NWS Daily Summary

Daily Weather History Graph

Daily Weather History Graph

Search for Another Location

Airport:

Trip Planner

Search our weather history database for the weather conditions in past years. The results will help you decide how hot, cold, wet, or windy it might be!

Date:

Astronomy

Sep. 28, 2013 Rise Set
Actual Time 6:46 AM PDT 6:35 PM PDT
Civil Twilight 6:15 AM PDT 7:06 PM PDT
Nautical Twilight 5:39 AM PDT 7:41 PM PDT
Astronomical Twilight 5:02 AM PDT 8:18 PM PDT
Moon 12:15 AM PDT (9/28) 3:17 PM PDT (9/28)
Length of Visible Light 12h 50m
Length of Day
11h 49m
Waning Crescent, 35% of the Moon is Illuminated
Sep 28
Waning Crescent
Oct 4
New
Oct 11
First Quarter
Oct 18
Full
Oct 26
Last Quarter

Hourly Weather History & Observations

Time (PDT) Temp. Dew Point Humidity Pressure Visibility Wind Dir Wind Speed Gust Speed Precip Events Conditions
12:58 AM 46.9 °F 44.4 °F 91% 29.92 in 10.0 mi South 12.7 mph - N/A   Overcast
1:58 AM 47.3 °F 44.6 °F 90% 29.91 in 10.0 mi South 10.4 mph - N/A   Overcast
2:58 AM 47.3 °F 45.1 °F 92% 29.89 in 10.0 mi South 11.5 mph - N/A   Overcast
3:13 AM 48.2 °F 44.6 °F 87% 29.86 in 10.0 mi South 16.1 mph - N/A   Overcast
3:49 AM 48.2 °F 44.6 °F 87% 29.86 in 10.0 mi SSE 10.4 mph - N/A   Overcast
3:58 AM 47.8 °F 45.3 °F 91% 29.88 in 10.0 mi South 10.4 mph - N/A   Overcast
4:10 AM 48.2 °F 44.6 °F 87% 29.85 in 10.0 mi South 9.2 mph - N/A   Overcast
4:18 AM 48.2 °F 44.6 °F 87% 29.85 in 10.0 mi South 10.4 mph - N/A   Overcast
4:58 AM 48.0 °F 45.5 °F 91% 29.86 in 10.0 mi South 10.4 mph - N/A   Overcast
4:59 AM 48.2 °F 46.4 °F 93% 29.84 in 10.0 mi South 11.5 mph - N/A   Overcast
5:12 AM 48.2 °F 46.4 °F 93% 29.84 in 10.0 mi South 13.8 mph - N/A   Overcast
5:24 AM 48.2 °F 46.4 °F 93% 29.83 in 10.0 mi South 15.0 mph - N/A Rain Light Rain
5:58 AM 47.5 °F 46.4 °F 96% 29.84 in 10.0 mi South 11.5 mph - 0.00 in Rain Light Rain
6:07 AM 48.2 °F 46.4 °F 93% 29.82 in 10.0 mi South 10.4 mph - N/A Rain Light Rain
6:25 AM 48.2 °F 46.4 °F 93% 29.82 in 10.0 mi South 10.4 mph - N/A Rain Light Rain
6:58 AM 47.8 °F 47.3 °F 98% 29.83 in 9.0 mi SSE 6.9 mph - 0.04 in Rain Light Rain
7:00 AM 48.2 °F 48.2 °F 100% 29.81 in 9.0 mi SSE 8.1 mph - N/A Rain Light Rain
7:07 AM 48.2 °F 48.2 °F 100% 29.81 in 7.0 mi SSE 8.1 mph - N/A Rain Light Rain
7:19 AM 48.2 °F 48.2 °F 100% 29.81 in 3.0 mi SE 9.2 mph - N/A Rain Rain
7:21 AM 48.2 °F 48.2 °F 100% 29.81 in 2.5 mi SE 8.1 mph - N/A Rain Light Rain
7:25 AM 48.2 °F 48.2 °F 100% 29.80 in 2.0 mi SE 8.1 mph - N/A Rain Light Rain
7:28 AM 48.2 °F 48.2 °F 100% 29.80 in 2.5 mi SE 8.1 mph - N/A Rain Light Rain
7:34 AM 48.2 °F 48.2 °F 100% 29.80 in 3.0 mi SE 9.2 mph - N/A Rain Light Rain
7:58 AM 48.7 °F 48.4 °F 99% 29.81 in 9.0 mi SE 8.1 mph - 0.06 in Rain Light Rain
8:04 AM 48.2 °F 48.2 °F 100% 29.79 in 9.0 mi SSE 8.1 mph - N/A Rain Light Rain
8:33 AM 50.0 °F 48.2 °F 94% 29.78 in 4.0 mi SE 10.4 mph - N/A Rain Rain
8:53 AM 50.0 °F 48.2 °F 94% 29.77 in 8.0 mi SSE 11.5 mph - N/A Rain Rain
8:58 AM 49.5 °F 48.9 °F 98% 29.79 in 9.0 mi SSE 12.7 mph - 0.07 in Rain Light Rain
9:17 AM 50.0 °F 50.0 °F 100% 29.76 in 9.0 mi SSE 11.5 mph - N/A Rain Rain
9:51 AM 50.0 °F 50.0 °F 100% 29.76 in 10.0 mi South 16.1 mph - N/A Rain Light Rain
9:58 AM 51.1 °F 50.0 °F 96% 29.77 in 10.0 mi SSE 12.7 mph 23.0 mph 0.04 in Rain Light Rain
10:18 AM 51.8 °F 50.0 °F 94% 29.75 in 10.0 mi SSE 16.1 mph - N/A Rain Light Rain
10:20 AM 51.8 °F 50.0 °F 94% 29.75 in 10.0 mi SSE 13.8 mph 20.7 mph N/A Rain Light Rain
10:32 AM 51.8 °F 50.0 °F 94% 29.74 in 10.0 mi South 13.8 mph 24.2 mph N/A Rain Light Rain
10:58 AM 52.0 °F 50.7 °F 95% 29.75 in 10.0 mi SSE 17.3 mph - 0.04 in Rain Light Rain
11:12 AM 51.8 °F 51.8 °F 100% 29.73 in 10.0 mi South 20.7 mph 24.2 mph N/A Rain Light Rain
11:39 AM 53.6 °F 51.8 °F 94% 29.72 in 10.0 mi South 19.6 mph 27.6 mph N/A Rain Light Rain
11:58 AM 54.0 °F 51.6 °F 92% 29.73 in 10.0 mi South 20.7 mph 28.8 mph 0.01 in Rain Light Rain
12:14 PM 53.6 °F 51.8 °F 94% 29.71 in 10.0 mi South 17.3 mph 31.1 mph N/A Rain Light Rain
12:25 PM 53.6 °F 51.8 °F 94% 29.71 in 10.0 mi SSE 17.3 mph 26.5 mph N/A Rain Light Rain
12:29 PM 53.6 °F 53.6 °F 100% 29.70 in 10.0 mi SSE 17.3 mph 26.5 mph N/A Rain Light Rain
12:32 PM 55.4 °F 53.6 °F 94% 29.70 in 10.0 mi SSE 18.4 mph 23.0 mph N/A Rain Light Rain
12:33 PM 55.4 °F 53.6 °F 94% 29.70 in 10.0 mi SSE 20.7 mph 25.3 mph N/A Rain Light Rain
12:48 PM 55.4 °F 53.6 °F 94% 29.70 in 10.0 mi South 19.6 mph 28.8 mph N/A Rain Light Rain
12:58 PM 55.4 °F 53.2 °F 92% 29.70 in 10.0 mi SSE 21.9 mph 34.5 mph 0.01 in Rain Light Rain
12:59 PM 55.4 °F 53.6 °F 94% 29.69 in 10.0 mi South 21.9 mph 34.5 mph N/A Rain Light Rain
1:09 PM 55.4 °F 53.6 °F 94% 29.68 in 10.0 mi SSE 23.0 mph 29.9 mph N/A Rain Light Rain
1:10 PM 55.4 °F 53.6 °F 94% 29.69 in 10.0 mi South 20.7 mph 29.9 mph N/A Rain Light Rain
1:58 PM 55.4 °F 52.9 °F 91% 29.70 in 10.0 mi SSE 20.7 mph 25.3 mph 0.01 in Rain Light Rain
2:58 PM 55.0 °F 53.1 °F 93% 29.68 in 10.0 mi SSE 16.1 mph 23.0 mph 0.04 in Rain Light Rain
3:29 PM 55.4 °F 53.6 °F 94% 29.66 in 10.0 mi SSE 16.1 mph 23.0 mph N/A Rain Light Rain
3:58 PM 54.7 °F 53.1 °F 94% 29.66 in 10.0 mi SSE 15.0 mph 23.0 mph 0.04 in Rain Light Rain
4:01 PM 55.4 °F 53.6 °F 94% 29.65 in 10.0 mi SSE 15.0 mph 23.0 mph N/A Rain Rain
4:50 PM 53.6 °F 51.8 °F 94% 29.64 in 5.0 mi SSE 12.7 mph - N/A Rain Rain
4:52 PM 53.6 °F 51.8 °F 94% 29.65 in 6.0 mi SSE 12.7 mph - N/A Rain Rain
4:58 PM 54.0 °F 52.7 °F 95% 29.65 in 8.0 mi South 15.0 mph - 0.09 in Rain Light Rain
5:04 PM 53.6 °F 51.8 °F 94% 29.64 in 10.0 mi SSE 18.4 mph 24.2 mph N/A Rain Light Rain
5:10 PM 53.6 °F 51.8 °F 94% 29.64 in 10.0 mi SSE 17.3 mph 24.2 mph N/A Rain Light Rain
5:12 PM 53.6 °F 51.8 °F 94% 29.63 in 10.0 mi SSE 15.0 mph 24.2 mph N/A Rain Light Rain
5:58 PM 53.6 °F 51.4 °F 92% 29.62 in 10.0 mi SSE 16.1 mph - 0.02 in Rain Light Rain
6:58 PM 52.9 °F 50.9 °F 93% 29.58 in 10.0 mi SE 18.4 mph 24.2 mph 0.02 in Rain Light Rain
7:10 PM 53.6 °F 50.0 °F 88% 29.56 in 10.0 mi SSE 18.4 mph 24.2 mph N/A   Scattered Clouds
7:58 PM 53.6 °F 49.5 °F 86% 29.55 in 10.0 mi SE 13.8 mph - 0.00 in   Mostly Cloudy
8:04 PM 53.6 °F 50.0 °F 88% 29.54 in 10.0 mi SE 16.1 mph - N/A Rain Light Rain
8:34 PM 53.6 °F 50.0 °F 88% 29.51 in 10.0 mi SE 17.3 mph 23.0 mph N/A   Mostly Cloudy
8:41 PM 53.6 °F 48.2 °F 82% 29.52 in 10.0 mi SSE 17.3 mph 24.2 mph N/A Rain Light Rain
8:58 PM 53.6 °F 49.5 °F 86% 29.52 in 10.0 mi SSE 20.7 mph 27.6 mph 0.00 in Rain Light Rain
9:32 PM 53.6 °F 50.0 °F 88% 29.49 in 10.0 mi SSE 17.3 mph 27.6 mph N/A   Mostly Cloudy
9:39 PM 53.6 °F 50.0 °F 88% 29.50 in 10.0 mi SE 16.1 mph 25.3 mph N/A Rain Light Rain
9:58 PM 53.2 °F 49.6 °F 88% 29.48 in 10.0 mi SSE 17.3 mph - 0.01 in Rain Light Rain
9:59 PM 53.6 °F 50.0 °F 88% 29.48 in 10.0 mi SSE 19.6 mph 23.0 mph N/A   Mostly Cloudy
10:00 PM 53.6 °F 50.0 °F 88% 29.48 in 10.0 mi SSE 16.1 mph 23.0 mph N/A Rain Light Rain
10:13 PM 53.6 °F 50.0 °F 88% 29.49 in 10.0 mi SSE 16.1 mph 24.2 mph N/A Rain Light Rain
10:30 PM 53.6 °F 50.0 °F 88% 29.47 in 10.0 mi SSE 18.4 mph 25.3 mph N/A   Overcast
10:44 PM 53.6 °F 50.0 °F 88% 29.46 in 10.0 mi SSE 18.4 mph 24.2 mph N/A Rain Light Rain
10:57 PM 53.6 °F 50.0 °F 88% 29.48 in 10.0 mi South 17.3 mph 24.2 mph N/A Rain Rain
10:58 PM 53.4 °F 49.6 °F 87% 29.48 in 10.0 mi South 17.3 mph 24.2 mph 0.03 in Rain Rain
11:00 PM 53.6 °F 50.0 °F 88% 29.49 in 8.0 mi South 17.3 mph 24.2 mph N/A Rain Rain
11:05 PM 53.6 °F 50.0 °F 88% 29.49 in 5.0 mi South 16.1 mph 24.2 mph N/A Rain Heavy Rain
11:11 PM 53.6 °F 50.0 °F 88% 29.48 in 5.0 mi South 12.7 mph - N/A Rain Light Rain
11:17 PM 53.6 °F 50.0 °F 88% 29.49 in 10.0 mi South 13.8 mph - N/A Rain Light Rain
11:23 PM 53.6 °F 50.0 °F 88% 29.49 in 9.0 mi South 13.8 mph - N/A Rain Rain
11:27 PM 53.6 °F 50.0 °F 88% 29.49 in 8.0 mi South 12.7 mph - N/A Rain Light Rain
11:33 PM 53.6 °F 50.0 °F 88% 29.48 in 9.0 mi South 12.7 mph - N/A Rain Light Rain
11:43 PM 53.6 °F 51.8 °F 94% 29.48 in 9.0 mi South 12.7 mph - N/A Rain Light Rain
11:56 PM 53.6 °F 51.8 °F 94% 29.49 in 4.0 mi South 13.8 mph - N/A Rain Rain
11:58 PM 53.1 °F 51.3 °F 94% 29.50 in 4.0 mi South 13.8 mph - 0.14 in Rain Light Rain
11:59 PM 53.6 °F 51.8 °F 94% 29.49 in 4.0 mi South 15.0 mph - N/A Rain Light Rain